View from above orbital plane
|
View from above satellite
|
Ground track
|
The orbit data is extracted from the following two-line orbital elements,
1 107U 61013A 22146.18940750 .00001571 00000-0 19278-3 0 9992
2 107 28.7848 142.3701 0542498 96.0536 270.2096 14.10063813 65707
Epoch (UTC): | 26 May 2022 04:32:44 |
Eccentricity: | 0.0542498 |
inclination: | 28.7848° |
perigee height: | 466 km |
apogee height: | 1252 km |
right ascension of ascending node: | 142.3701° |
argument of perigee: | 96.0536° |
revolutions per day: | 14.10063813 |
mean anomaly at epoch: | 270.2096° |
orbit number at epoch: | 6570 |
The dashed part of the orbit path shows where the satellite is in the earth's shadow,
|
|